User: anonymous   Login
Location: Turtle Rock Observatory
(36.6913°N, 81.9708°W)
Time: 16:43:12
(UTC-05:00)
Language:

Lacrosse 5 rocket - Orbit

View from above orbital plane
View from above orbital plane
View from above satellite
View from above satellite

Ground track
Ground track

The orbit data is extracted from the following two-line orbital elements,

1 28647U 05016B   17342.18492935 0.00000700  00000-0  41002-4 0    08
2 28647  56.9975  28.9478 0122004 277.7029  82.2971 15.05221218    07
Epoch (UTC): 08 December 2017 04:26:17
Eccentricity: 0.0122004
inclination: 56.9975°
perigee height: 466 km
apogee height: 635 km
right ascension of ascending node: 28.9478°
argument of perigee: 277.7029°
revolutions per day: 15.05221218
mean anomaly at epoch: 82.2971°
orbit number at epoch: 0

The dashed part of the orbit path shows where the satellite is in the earth's shadow,  

DLR